#timestamp,LO_Frequency,Hit,StdDev 
1592935215.4,286047000.0,N
1592935235.2,286047000.6,N
1592935255.0,286047000.5,N
1592935255.9,286047000.5,N
1592935275.8,286047000.4,N
1592935295.6,286047000.0,N
1592935315.5,286047000.6,N
1592935335.3,286047001.1,N
1592935355.1,286046999.9,N
1592935375.9,286047000.2,N
1592935395.7,286047002.4,N
1592935415.5,286047002.8,N
1592935435.4,286047002.5,N
1592935455.2,286046999.7,N
1592935475.1,286047002.0,N
1592935476.0,286047002.0,N
1592935495.8,286047001.5,N
1592935515.6,286047004.3,Y
1592935535.5,286047002.6,P
1592935555.3,286047002.0,N
1592935575.2,286047002.6,N
1592935595.9,286047002.1,N
1592935615.7,286047004.4,Y
1592935635.6,286046999.8,P
1592935655.4,286047000.9,N
1592935675.2,286047001.2,N
1592935695.1,286047001.2,N
1592935696.0,286047001.2,N
1592935715.8,286047001.0,N
1592935735.7,286047000.8,N
1592935755.5,286047001.0,N
1592935775.3,286047000.6,N
1592935795.2,286047000.0,N
1592935815.0,286047000.5,N
1592935815.9,286047000.5,N
1592935835.8,286047000.4,N
1592935855.6,286047000.3,N
1592935875.4,286046998.1,Y
1592935895.3,286046998.3,P
1592935915.1,286046998.1,N
1592935935.9,286046998.7,N
1592935955.7,286046998.9,N
1592935975.5,286046999.1,N
1592935995.4,286046999.4,N
1592936015.2,286046996.5,Y
1592936035.0,286046998.2,P
1592936035.9,286046998.2,P
1592936055.8,286046998.6,P
1592936075.6,286046998.6,Y
1592936095.5,286047001.0,P
1592936115.3,286047000.5,N
1592936135.1,286047000.2,N
1592936155.9,286046999.3,N
1592936175.7,286046999.9,N
1592936195.6,286046999.9,N
1592936215.4,286047000.1,N
1592936235.2,286046999.9,N
1592936255.1,286047000.0,N
1592936256.0,286047000.0,N
1592936275.8,286047000.3,N
1592936295.6,286047000.6,N
1592936315.5,286047002.3,Y
1592936335.3,286046999.9,P
1592936355.2,286046999.9,N
1592936375.9,286046999.8,P
1592936395.7,286047000.2,N
1592936415.6,286047002.8,Y
1592936435.4,286047000.9,P
1592936455.3,286047000.8,N
1592936475.1,286047000.6,N
1592936476.0,286047000.6,N
1592936495.8,286047000.5,N
1592936515.7,286047002.8,Y
1592936535.5,286046998.7,P
1592936555.4,286047001.0,N
1592936575.2,286047000.6,N
1592936595.0,286047001.0,N
1592936595.9,286047001.0,N
1592936615.8,286047001.0,N
1592936635.6,286047000.8,N
1592936655.4,286046998.2,N
1592936675.3,286047000.2,N
1592936695.1,286047000.4,N
1592936715.9,286047002.8,Y
1592936735.7,286047000.1,P
1592936755.5,286047000.3,N
1592936775.4,286047000.3,N
1592936795.2,286047000.1,N
1592936815.1,286047000.1,N
1592936816.0,286047000.1,N
1592936835.8,286047001.9,Y
1592936855.7,286047002.0,P
1592936875.5,286047001.8,N
1592936895.3,286047001.3,N
1592936915.2,286047001.7,N
1592936935.0,286047000.4,N
1592936935.9,286047000.4,N
1592936955.7,286046999.8,N
1592936975.6,286047001.2,N
1592936995.4,286047001.3,N
1592937015.3,286046999.9,N
1592937035.1,286047002.8,Y
1592937055.8,286046998.6,P
1592937075.7,286047000.6,N
1592937095.5,286046999.8,N
1592937115.4,286047000.5,N
1592937135.2,286047000.4,N
1592937155.0,286046999.7,N
1592937155.9,286046999.7,N
1592937175.8,286047000.5,N
1592937195.6,286047000.4,N
1592937215.4,286047002.2,Y
1592937235.3,286047001.9,P
1592937255.1,286047000.1,N
1592937275.9,286046999.7,N
1592937295.7,286047002.7,Y
1592937315.5,286047002.6,P
1592937335.4,286047002.6,N
1592937355.2,286047002.3,N
1592937375.1,286047003.4,Y
1592937376.0,286047003.4,P
1592937395.8,286047004.9,P
1592937415.6,286047001.3,N
1592937435.5,286047002.5,N
1592937455.3,286047001.9,N
1592937475.2,286047001.4,N
1592937495.9,286047003.4,N
1592937515.7,286047001.5,N
1592937535.6,286047002.4,N
1592937555.4,286046999.7,N
1592937575.2,286047002.5,N
1592937595.1,286046999.7,N
1592937596.0,286046999.7,N
1592937615.8,286047004.0,N
1592937635.7,286047005.3,Y
1592937655.5,286047002.0,P
1592937675.3,286047001.5,P
1592937695.2,286047001.8,P
1592937715.0,286047002.7,Y
1592937715.9,286047002.7,P
1592937735.8,286046999.9,N
1592937755.6,286047002.6,N
1592937775.4,286047001.9,N
1592937795.3,286047000.3,N
1592937815.1,286047000.4,N
1592937835.9,286047001.0,N
1592937855.7,286047002.4,N
1592937875.5,286047004.3,Y
1592937895.4,286046999.7,P
1592937915.2,286047001.5,N
1592937935.1,286047002.6,P
1592937936.0,286047002.6,N
1592937955.8,286046999.9,N
1592937975.6,286047002.8,N
1592937995.5,286046998.6,N
1592938015.3,286046999.8,N
1592938035.2,286047001.9,N
1592938055.9,286047000.6,N
1592938075.7,286047001.9,N
1592938095.6,286047002.9,N
1592938115.4,286047003.2,N
1592938135.2,286047002.8,N
1592938155.1,286047003.7,N
1592938156.0,286047003.7,N
1592938175.8,286047000.0,N
1592938195.7,286046999.3,N
1592938215.5,286046996.5,N
1592938235.3,286046997.6,N
1592938255.2,286046997.2,N
1592938275.0,286046995.5,N
1592938275.9,286046995.5,N
1592938295.8,286046996.1,N
1592938315.6,286046997.5,N
1592938335.4,286046997.0,N
1592938355.3,286046996.8,N
1592938375.1,286046997.1,N
1592938395.8,286046999.3,N
1592938415.7,286046998.4,N
1592938435.5,286046996.6,N
1592938455.4,286046997.2,N
1592938475.2,286046997.3,N
1592938495.0,286046998.0,N
1592938495.9,286046998.0,N
1592938515.8,286046995.5,N
1592938535.6,286046995.9,N
1592938555.5,286046995.4,N
1592938575.3,286046996.4,N
1592938595.1,286046996.1,N
1592938615.9,286046995.8,N
1592938635.7,286046995.3,N
1592938655.5,286046995.9,N
1592938675.4,286046996.2,N
1592938695.2,286046996.0,N
1592938715.1,286046996.1,N
1592938716.0,286046996.1,Y
1592938735.8,286046996.7,P
1592938755.6,286046996.8,P
1592938775.5,286046999.6,P
1592938795.3,286046999.4,N
